Theta_e
331 335 339 341 341 341 340 341 341 342 342 341 338 332 335 340 344 348 339 350 346 345 337 335 331 336 339 340 344 344 337 336 337 330 326 331 339 335 335 341 341 343 347
329 335 338 340 340 341 341 342 342 340 344 346 342 342 340 343 344 344 340 349 350 348 343 336 330 337 337 340 339 344 338 334 335 332 327 322 325 333 333 338 339 338 345
328 332 336 337 338 340 341 342 343 345 346 344 343 341 344 345 344 344 344 346 348 346 341 335 333 337 335 332 335 337 339 328 329 334 326 320 325 325 332 340 338 337 340
330 332 334 335 336 341 341 342 345 346 344 343 343 336 336 338 340 344 346 347 348 345 343 339 339 342 339 332 334 349 339 332 325 331 340 336 330 322 327 335 339 340 338
331 331 334 336 337 342 342 343 346 346 346 344 344 342 339 339 340 342 345 344 348 347 346 342 340 343 342 343 346 348 340 339 332 331 332 335 336 333 328 327 336 337 337
331 332 335 337 337 343 344 345 343 342 345 344 344 343 339 338 337 340 344 345 345 347 348 345 345 345 349 349 351 350 348 347 341 333 337 335 332 332 332 332 333 332 337
328 328 332 335 336 341 343 345 344 343 345 345 346 344 340 334 337 342 342 344 347 348 347 349 348 349 348 349 349 347 345 346 344 343 342 343 341 342 337 331 332 327 332
327 327 330 335 337 341 342 344 344 343 345 345 345 344 341 340 338 341 344 344 345 347 349 349 348 349 351 351 351 348 347 348 347 343 340 342 344 344 340 336 334 329 329
334 332 332 335 338 340 342 344 345 344 344 345 345 346 346 345 343 345 347 344 346 346 345 343 340 339 349 350 349 347 346 347 346 344 345 345 346 345 343 341 341 333 327
336 335 338 336 338 339 344 344 346 344 345 344 347 348 347 347 346 345 347 345 345 345 342 340 341 341 348 349 349 347 348 346 345 346 346 344 343 344 345 344 344 341 335
335 335 337 337 338 338 343 345 346 344 345 346 348 347 347 347 348 347 344 345 346 346 341 339 346 347 348 349 348 347 348 347 345 346 345 345 346 345 345 344 344 342 342
334 335 337 338 340 338 340 343 345 345 346 347 349 347 346 345 344 347 345 344 346 344 340 343 348 348 349 350 349 347 349 348 346 346 345 345 349 345 344 345 343 343 342
333 333 333 329 330 338 341 343 346 346 346 346 347 347 346 345 343 346 347 346 345 348 347 347 348 349 349 348 348 349 349 348 348 348 347 345 345 344 343 342 343 343 346
331 333 330 330 330 332 335 340 345 349 348 347 346 345 346 347 346 347 346 347 348 348 348 348 349 347 347 348 347 347 348 346 348 348 348 346 346 345 342 344 342 344 343
328 332 330 328 330 330 332 339 340 342 341 347 346 345 346 346 345 345 347 349 350 349 348 347 348 348 347 350 347 348 347 347 346 348 348 348 347 345 343 345 341 343 339
325 329 333 331 329 331 335 338 337 341 341 340 343 344 344 345 344 344 346 347 349 347 345 345 345 346 352 339 337 341 342 344 345 343 344 347 344 343 337 337 337 338 339
323 324 327 330 331 332 338 337 338 339 340 338 339 343 344 344 344 345 345 345 345 346 346 344 344 342 344 332 334 338 340 341 341 341 342 346 336 330 338 336 334 334 332
323 322 325 327 331 334 334 337 339 339 342 338 339 343 343 344 345 345 344 341 342 342 343 341 341 335 331 329 328 333 337 338 332 330 332 329 321 322 325 337 338 330 326
326 325 326 326 329 326 330 334 335 338 341 339 338 335 342 342 341 342 340 341 341 335 332 332 334 328 323 323 324 331 337 328 322 321 319 320 321 320 324 335 329 323 324
328 329 330 328 323 325 327 332 334 334 338 340 341 344 342 340 339 338 336 334 332 328 326 322 323 323 321 315 315 326 337 326 321 319 319 318 317 315 319 328 328 325 327
327 327 325 325 326 328 328 330 332 333 340 340 340 340 340 338 337 335 333 330 327 323 321 318 317 316 315 314 313 315 328 331 326 322 319 317 314 311 312 316 324 324 327
325 324 325 326 326 327 328 328 328 330 333 334 334 334 335 334 332 329 326 324 323 320 319 317 316 317 315 313 312 313 316 322 321 317 315 314 310 309 311 315 314 316 322
323 324 325 325 325 325 326 325 326 328 328 330 330 328 329 330 328 326 324 323 323 321 320 318 316 316 317 318 313 312 314 316 317 316 313 311 310 311 313 314 315 317 320
322 325 325 323 322 323 324 324 325 324 324 323 321 320 319 317 317 319 317 319 320 318 318 315 313 315 308 309 310 311 311 314 315 315 315 315 314 313 313 313 314 316 316
322 324 324 324 321 323 323 323 323 321 318 319 318 317 315 312 307 304 307 311 306 308 317 315 312 309 307 304 302 304 308 309 308 310 310 310 313 312 310 311 309 309 309
321 323 323 324 322 319 322 324 324 322 320 318 318 316 315 313 312 309 304 302 301 300 301 303 307 304 302 299 297 296 298 298 300 307 306 306 306 306 305 305 304 304 304
Wind_Speed
10 16 18 18 13 11 9 8 10 6 6 3 3 1 2 1 1 2 7 6 5 5 5 4 3 3 3 2 4 2 5 3 1 4 4 3 1 3 2 0 1 5 0
9 16 18 15 16 15 10 9 10 8 5 4 2 3 3 2 3 1 6 6 5 5 5 5 2 1 4 5 3 4 3 1 4 4 2 4 5 2 3 3 3 5 3
10 16 19 17 13 14 14 11 11 9 6 6 3 2 3 3 1 2 3 4 4 4 5 6 5 3 3 3 2 2 4 3 4 5 4 1 2 3 4 7 5 8 7
9 12 17 16 15 14 12 10 8 11 8 8 4 3 3 3 2 3 3 5 5 5 5 5 6 4 2 3 2 3 2 3 3 1 2 2 4 1 4 4 5 6 2
14 13 17 17 16 13 13 13 9 10 8 8 7 5 3 2 2 3 4 5 6 6 6 4 3 0 2 3 4 3 5 3 3 3 2 2 2 2 3 4 5 6 4
6 8 14 15 15 13 12 12 10 7 8 8 8 7 7 5 3 3 4 3 4 4 6 7 5 5 5 4 4 4 5 4 3 3 4 4 2 3 3 5 6 5 4
6 6 14 16 15 16 14 11 11 8 9 9 8 8 8 8 8 6 4 3 2 3 6 6 6 5 5 4 3 1 1 2 2 5 3 3 4 2 3 3 3 2 2
6 7 8 17 18 18 16 15 13 11 10 10 9 8 8 5 4 4 3 4 4 3 2 5 5 4 4 4 2 1 2 2 3 3 4 3 4 3 2 1 1 3 2
4 6 9 17 18 18 18 18 15 12 12 11 11 9 7 7 6 6 5 4 3 3 4 5 5 3 2 4 4 2 2 3 3 4 4 2 1 1 1 1 2 4 1
6 3 5 14 19 19 17 17 17 16 14 10 9 10 10 8 6 4 5 6 5 4 5 3 2 3 3 5 4 3 3 3 3 3 4 3 1 3 2 0 0 1 3
7 3 4 6 16 17 18 17 15 15 12 11 9 9 8 8 7 6 6 7 5 6 5 5 5 4 4 4 4 4 4 3 4 3 3 5 3 3 2 1 1 0 2
2 5 6 5 1 14 15 17 15 14 13 12 11 10 9 7 7 7 7 6 6 5 6 6 5 5 6 5 5 5 4 4 4 5 4 5 3 3 2 2 2 1 1
3 4 5 4 6 5 5 12 13 15 13 12 13 12 11 10 8 8 7 7 7 6 6 6 7 6 6 6 5 5 5 5 6 5 5 6 4 4 3 3 3 3 2
3 5 4 0 5 5 7 6 3 8 13 14 13 13 12 12 10 9 8 7 7 7 7 7 7 7 6 6 6 6 5 5 5 6 5 5 5 5 5 4 5 4 3
5 2 6 3 4 4 2 4 3 2 4 9 12 13 12 11 9 8 9 8 8 9 8 7 6 5 4 4 6 5 5 6 6 5 5 4 5 7 6 2 5 3 3
2 5 1 2 4 3 2 4 2 4 2 8 10 9 10 12 11 10 9 8 8 6 5 5 6 5 4 5 5 3 1 2 4 4 3 4 4 4 5 2 1 2 2
2 2 4 3 2 5 6 5 1 2 7 5 10 6 7 10 10 8 7 7 6 5 5 5 4 4 2 4 2 0 1 1 0 1 1 2 3 5 5 4 2 5 5
3 2 2 1 4 5 6 5 4 4 2 7 10 4 5 6 6 7 7 6 5 5 3 4 4 5 5 6 1 1 1 1 5 4 3 4 2 4 4 2 5 4 5
3 1 2 2 2 2 4 7 3 1 8 13 9 6 5 5 6 6 6 4 6 6 5 3 5 6 4 7 5 3 3 5 4 3 4 3 2 6 2 4 6 5 5
4 4 4 3 2 4 3 2 3 3 3 4 6 2 3 3 6 8 7 5 8 8 6 6 5 6 4 9 9 4 2 6 4 4 4 8 5 6 8 5 7 6 2
5 4 5 4 2 3 4 6 2 5 4 8 4 3 5 7 7 7 6 7 7 9 6 7 5 6 5 7 9 9 3 3 4 3 3 3 8 9 10 9 5 3 3
4 4 3 4 2 3 5 7 8 4 5 8 10 7 6 6 6 9 7 7 8 8 6 6 6 4 5 7 10 12 10 9 6 4 3 3 6 7 8 6 8 9 5
6 3 4 4 4 4 4 7 3 5 6 6 7 8 7 7 6 7 6 6 6 6 5 4 5 4 3 4 11 11 11 10 6 4 6 6 6 7 6 9 8 7 5
6 5 5 4 3 3 4 3 4 6 6 7 6 6 6 7 8 7 5 4 3 4 5 4 4 4 3 3 4 4 4 7 5 5 3 5 6 8 6 5 6 4 4
4 4 5 4 3 3 4 3 3 5 7 7 6 6 5 7 6 7 4 3 3 2 4 4 4 4 3 2 3 3 4 3 3 4 3 3 3 4 4 4 4 4 5
4 3 4 6 4 4 2 3 3 4 5 7 6 5 5 5 5 6 5 10 7 8 10 9 6 4 8 8 6 7 7 8 7 4 2 2 3 3 2 3 3 3 5
Wind_Direction
162 149 157 163 157 169 161 172 142 160 144 153 136 87 176 200 134 153 135 177 136 147 161 107 93 67 38 94 108 138 84 47 240 77 333 296 24 127 297 301 54 316 343
133 145 158 158 167 172 165 166 162 166 161 135 149 144 171 201 195 194 159 195 182 162 144 155 154 164 93 60 349 98 58 56 29 97 70 338 333 268 150 190 158 212 248
167 158 160 169 162 165 170 171 172 158 160 147 105 71 78 47 21 298 160 246 193 136 162 161 158 193 143 129 84 68 245 94 36 65 151 94 251 326 329 333 301 155 217
179 173 166 165 171 173 170 170 157 156 157 159 133 157 149 148 224 233 209 194 185 198 186 176 164 159 108 114 256 176 112 106 145 79 36 301 105 120 350 321 300 312 284
186 175 180 173 175 170 174 175 166 162 156 160 153 157 163 147 175 230 226 158 197 207 175 188 193 138 236 192 210 152 174 166 141 146 188 330 127 172 108 277 315 326 318
173 174 184 176 175 176 173 174 169 175 165 162 160 167 165 177 180 202 203 208 177 172 191 184 183 214 218 197 186 168 163 164 162 166 175 187 183 228 166 230 266 243 304
180 206 173 186 180 178 179 177 180 173 183 171 166 165 172 194 194 196 184 203 216 210 188 168 176 192 207 212 193 173 174 210 168 203 225 210 222 209 199 182 236 250 300
229 210 212 182 185 180 180 180 187 186 182 178 169 172 173 183 189 195 179 227 222 196 171 142 144 181 221 223 177 216 254 260 245 251 241 220 216 218 204 204 123 324 335
88 249 206 184 185 183 182 183 183 193 187 189 169 175 176 183 199 208 187 202 210 168 168 174 160 194 192 229 214 195 221 215 248 270 289 301 331 275 234 184 148 161 323
156 58 48 199 188 185 185 183 183 189 191 187 184 177 181 182 181 178 184 191 192 197 188 205 197 206 226 237 211 211 193 176 221 224 224 281 264 269 283 290 47 125 149
145 98 11 327 203 187 182 184 184 182 185 185 189 179 188 183 172 180 184 179 188 185 198 212 196 219 218 231 218 220 224 242 261 271 259 284 291 295 258 265 137 126 136
78 95 38 298 40 188 186 183 186 185 187 184 184 188 182 187 185 193 193 188 199 202 214 215 216 219 219 210 204 226 249 221 260 274 280 274 305 285 257 241 228 229 196
120 135 74 15 27 42 177 193 195 185 182 182 187 188 189 188 194 193 203 188 202 207 214 214 220 214 214 213 224 229 238 237 237 252 255 263 269 275 263 240 237 243 221
345 132 101 146 55 32 55 61 186 213 192 185 194 190 188 190 196 195 195 197 199 203 209 213 212 218 219 216 218 226 238 251 237 238 235 249 258 266 271 270 255 249 240
25 355 182 147 75 355 51 70 26 345 281 193 194 197 191 190 189 193 202 207 204 211 213 210 217 225 234 234 228 241 252 240 242 238 241 245 249 238 249 242 291 271 262
39 21 120 215 121 210 133 77 38 15 19 300 202 187 191 183 189 192 198 193 206 203 195 216 226 220 233 220 179 171 247 267 213 228 248 273 51 1 35 321 288 286 269
194 81 62 41 307 254 188 125 127 104 9 293 265 250 186 196 191 185 179 189 163 158 171 190 215 241 237 153 172 234 258 167 256 252 190 110 47 354 337 7 34 77 75
301 70 87 52 52 347 334 70 77 62 110 273 257 136 153 177 168 150 148 145 162 138 115 64 37 85 51 45 55 216 273 51 62 58 45 91 34 348 301 336 83 69 42
229 198 112 67 21 29 359 359 68 46 168 218 230 222 203 169 174 152 157 162 106 83 73 45 76 92 46 340 308 228 140 106 84 53 42 61 31 332 358 124 117 99 72
187 146 107 79 13 337 26 338 165 120 91 166 184 60 85 44 149 108 105 89 93 96 95 83 60 57 68 10 349 318 154 129 126 96 72 44 16 10 36 86 126 112 126
145 112 98 84 334 310 162 112 122 77 126 106 79 143 96 95 86 95 104 109 106 96 94 91 73 71 45 40 37 25 56 108 109 78 46 20 8 16 38 43 21 17 122
107 100 80 80 15 49 87 93 80 39 87 95 103 89 91 92 84 106 100 104 113 106 112 110 92 67 61 60 50 58 68 78 94 85 67 47 42 49 44 44 41 35 41
123 96 81 62 12 31 98 95 76 82 58 76 85 94 91 89 86 98 112 103 107 122 124 122 114 112 94 65 58 59 77 84 99 109 124 114 82 61 44 51 54 82 79
135 138 121 85 34 38 39 67 115 99 106 98 82 70 82 76 66 68 56 77 116 134 129 123 118 100 57 55 42 49 50 67 85 113 104 100 84 63 57 43 29 37 48
121 119 113 110 108 70 96 93 79 111 110 100 94 85 88 88 82 72 65 89 59 342 135 142 132 130 124 118 69 60 80 62 74 84 58 59 61 65 48 41 37 36 46
116 100 99 118 96 89 76 120 117 111 112 111 113 112 103 104 105 109 101 59 59 54 70 82 113 54 100 128 106 92 80 59 31 51 86 80 74 86 84 79 54 28 45